User: anonymous   Login
Location: Unspecified
(0.0000°N, 0.0000°E)
Time: 22:23:34
(UTC+00:00)
Language:

STARLINK-33580 - Orbit

View from above orbital plane
View from above orbital plane
View from above satellite
View from above satellite

Ground track
Ground track

The orbit is defined by the following mean orbital elements,

1 63711U          26145.59834900 +.00000000 +00000-0 +39598-3 0 00004
2 63711  53.1592 222.3975 0001000  93.8678 266.2438 15.31714298    09
Epoch (UTC): 25 May 2026 14:21:37
Eccentricity: 0.0001000
inclination: 53.1592°
perigee height: 470 km
apogee height: 471 km
right ascension of ascending node: 222.3975°
argument of perigee: 93.8678°
revolutions per day: 15.31714298
mean anomaly at epoch: 266.2438°

The dashed part of the orbit path shows where the satellite is in the earth's shadow,  

DLR